Location: Duac?
(36.9744°N, 30.6500°E)
Time: 13:13:23
(UTC+00:00)

Cosmos 2251 Rocket - Pass Details

Date: 05 August 2024
Orbit: 763 x 788 km, 74.0° (Epoch: 11 September)

Event Time Altitude Azimuth Distance (km) Brightness Sun altitude
Rises 17:26:42 0° 352° (N) 3,263 7.3 -5.7°
Reaches altitude 10° 17:29:20 10° 2° (N) 2,328 6.4 -6.2°
Maximum altitude 17:34:03 32° 65° (ENE) 1,300 4.4 -7.0°
Drops below altitude 10° 17:38:42 10° 128° (SE) 2,301 5.3 -7.8°
Enters shadow 17:38:57 - 129° (SE) 2,384 5.4 -7.9°
